Regional Weather Roundup
Issued by NWS

Home | Current Version | Previous Version | Graphics & Text | Print | Product List | Glossary On
Versions: 1 2 3 4 5 6 7 8 9 10 11 12 13 14 15 16 17 18 19 20 21 22 23 24 25 26 27 28 29 30 31 32 33 34 35 36 37 38 39 40 41 42 43 44 45 46 47 48 49 50
000
ASUS43 KDMX 230307
RWRIA

WEATHER ROUNDUP FOR IOWA
NATIONAL WEATHER SERVICE DES MOINES IA
900 PM CST SAT NOV 22 2014

NOTE: "FAIR" INDICATES FEW OR NO CLOUDS BELOW 12,000 FEET WITH NO
SIGNIFICANT WEATHER AND/OR OBSTRUCTIONS TO VISIBILITY.

* - THESE STATIONS ARE NOT NWS STATIONS...THUS NOT UNDER NWS
QUALITY CONTROL.  THEY ALSO DO NOT REPORT WEATHER SUCH
AS PRECIPITATION OR FOG.

IAZ001>003-012>014-020>022-031>034-043>046-230400-
   NORTHWEST IOWA

CITY           SKY/WX    TMP DP  RH WIND       PRES   REMARKS
CARROLL *      CLOUDY    55  54  94 S22G29    29.58F
CHEROKEE *     CLOUDY    48  48 100 S14       29.55S
DENISON *      CLOUDY    54  54 100 S14G23    29.57S FOG
LE MARS *      CLOUDY    50  46  87 S21G28    29.51F
ORANGE CITY *  CLOUDY    46  43  87 S16G23    29.50F FOG
SHELDON *      CLOUDY    43  43 100 S16       29.50S FOG
SIOUX CITY     CLOUDY    53  49  86 S20       29.54F
SPENCER        CLOUDY    47  44  90 S20       29.52F
STORM LAKE *   CLOUDY    50  50 100 SW24      29.56R
$$

IAZ055>058-069>071-079>083-090>094-230400-
   SOUTHWEST IOWA

CITY           SKY/WX    TMP DP  RH WIND       PRES   REMARKS
ATLANTIC *     CLOUDY    55  54  94 S20G26    29.62S
AUDUBON *      PTCLDY    54  48  82 S18       29.62S
CLARINDA *     CLOUDY    54  52  94 S15G22    29.66F
COUNCIL BLFS * CLOUDY    57  57 100 S20       29.59S
CRESTON *      CLOUDY    52  52 100 S18       29.66F
HARLAN  *      CLOUDY    55  55 100 S17G23    29.63F
LAMONI         MOCLDY    51  49  92 S14       29.70F
RED OAK *      CLOUDY    55  52  88 S17G25    29.64R
SHENANDOAH *   CLOUDY    55  52  88 S18G25    29.63F
$$

IAZ047>049-059>061-072>074-084-230400-
   CENTRAL IOWA

CITY           SKY/WX    TMP DP  RH WIND       PRES   REMARKS
AMES           CLOUDY    55  50  83 S14       29.64F
ANKENY *       CLOUDY    55  52  88 S13       29.67S
CHARITON *     CLEAR     52  50  93 S17       29.69F
DES MOINES     PTCLDY    54  50  86 S14       29.67S
GRINNELL*      MOCLDY    54  50  87 S14       29.70R
KNOXVILLE *    PTCLDY    54  50  87 S16       29.68S
MARSHALLTOWN   CLOUDY    53  51  93 S13       29.66S
PELLA *        MOCLDY    54  50  87 S12       29.71S
PERRY *        CLOUDY    55  52  88 S20       29.62F
$$

IAZ004>006-015-016-023>025-035-036-230400-
   NORTH CENTRAL IOWA

CITY           SKY/WX    TMP DP  RH WIND       PRES   REMARKS
ALGONA *       CLOUDY    48  48 100 S17       29.57F FOG
CLARION *      FOG       48  48 100 S16       29.61S VSB 1/2
ESTHERVILLE    CLOUDY    41  40  96 S16       29.53F FOG
FORT DODGE *   CLOUDY    52  48  87 S14G23    29.60F
MASON CITY     FOG       47  47 100 S15       29.62S VSB 3/4
FOREST CITY *  CLOUDY    48  48 100 S13       29.59F FOG
IOWA FALLS *   CLOUDY    52  50  93 S17       29.64F FOG
$$

IAZ007>011-017>019-026>030-037>042-050>054-066-230400-
   NORTHEAST IOWA

CITY           SKY/WX    TMP DP  RH WIND       PRES   REMARKS
CEDAR RAPIDS   CLOUDY    53  50  89 S13       29.72F
CHARLES CITY * FOG       48  48 100 S14       29.65F VSB 0
CLINTON *      CLOUDY    52  46  82 S15       29.81S
DECORAH *      FOG       48  48 100 S14       29.66F VSB 3/4
DUBUQUE        CLOUDY    50  49  96 S15       29.74R
MONTICELLO *   CLOUDY    52  52 100 S12       29.73S
OELWEIN *      CLOUDY    50  50 100 S14       29.70S FOG
WATERLOO       CLOUDY    53  52  96 S13       29.67F
$$

IAZ064-065-067-068-078-230400-
   EAST CENTRAL IOWA

CITY           SKY/WX    TMP DP  RH WIND       PRES   REMARKS
DAVENPORT      CLOUDY    53  47  79 S13       29.79S
IOWA CITY      CLOUDY    54  50  86 S14       29.76F
MT. PLEASANT * CLEAR     50  46  87 S14       29.76F
MUSCATINE *    CLOUDY    54  48  82 S8        29.78S
QUAD CITIES    PTCLDY    53  47  79 S13G21    29.78S
$$

IAZ062-063-075>077-085>089-095>099-230400-
   SOUTHEAST IOWA

CITY           SKY/WX    TMP DP  RH WIND       PRES   REMARKS
BURLINGTON     PTCLDY    52  48  86 S20G29    29.79F
FAIRFIELD *    CLOUDY    54  48  82 S12       29.75S
FORT MADISON * CLEAR     52  48  87 S13       29.80F
KEOKUK *       CLEAR     54  50  87 S13G18    29.79F
OSKALOOSA *      N/A     52  48  87 S13       29.72F
CENTERVILLE *    N/A     54  54 100 S9        29.74F
OTTUMWA        MOCLDY    53  48  83 S12       29.72F
WASHINGTON *   MOCLDY    52  52 100 S12       29.75F
$$

ABBREVIATIONS USED IN REMARKS
   TC - TEMPERATURES IN CELSIUS
  WCI - WIND CHILL INDEX
   HX - HEAT INDEX
  VSB - VISIBILITY
$$



USA.gov is the U.S. government's official web portal to all federal, state and local government web resources and services.